Probability
32 65 81 87 87 94 94 90 87 87 90 94 97 97 97 97 94 87 84 84 84 77 74 68 71 61 61 61 65 61 68 68 58 65 65 71 74 74 84 84 77 68 84
42 65 87 90 90 94 94 94 94 90 87 87 90 90 90 90 87 81 81 81 77 74 58 58 61 58 55 55 61 61 61 61 52 65 61 65 77 84 77 68 74 81 87
55 68 77 90 94 94 94 94 90 90 87 90 87 87 87 84 84 81 81 81 74 71 68 61 65 61 58 55 52 52 48 55 61 61 58 55 65 87 84 77 81 84 87
65 65 71 87 90 90 94 90 87 84 87 90 87 87 84 84 81 81 81 77 74 71 65 52 58 58 52 52 48 48 48 55 45 48 48 29 42 68 74 74 84 84 84
71 74 87 94 94 94 90 90 81 81 84 87 87 84 84 81 77 77 77 77 71 65 61 55 55 55 52 52 52 52 45 45 52 39 26 19 39 65 65 74 77 84 87
68 65 81 94 94 90 87 81 81 77 74 74 77 74 84 81 77 77 77 74 68 68 58 55 52 48 45 39 45 45 45 45 42 29 19 23 42 77 71 74 77 84 90
52 55 71 94 90 90 84 81 74 74 74 74 74 74 74 81 84 81 77 74 71 65 48 45 42 39 42 42 45 45 52 58 42 23 26 32 45 65 71 77 84 87 87
52 58 74 84 81 81 81 81 74 74 74 74 74 74 74 74 74 71 74 68 68 52 48 42 48 52 52 45 45 45 45 48 23 6 23 29 42 65 68 77 87 77 81
55 61 65 65 68 74 81 81 77 74 74 74 71 71 71 71 65 65 61 58 58 48 52 48 52 52 42 39 39 42 42 42 29 23 13 23 45 55 61 65 65 81 74
48 58 58 65 65 65 71 74 71 74 74 71 68 68 65 65 61 61 61 61 52 48 52 52 48 48 42 39 39 39 39 42 23 10 16 23 45 52 65 61 58 65 65
58 61 65 55 61 61 58 58 65 71 71 68 68 65 65 52 39 55 42 55 48 45 42 42 42 45 42 39 39 39 35 42 19 23 35 32 39 55 55 48 55 55 52
58 55 65 58 58 55 48 61 68 58 65 61 55 58 61 55 52 29 39 45 42 42 42 39 39 39 42 35 35 39 35 32 26 19 32 45 42 48 55 55 55 52 48
55 55 52 52 48 45 55 61 68 71 74 65 68 65 61 58 52 32 45 48 42 42 39 39 39 39 29 39 35 32 32 29 29 16 23 39 39 48 52 48 45 45 48
55 48 42 52 55 58 58 68 71 68 71 61 61 58 61 61 52 48 55 39 45 42 42 39 39 29 29 29 26 26 29 35 26 26 39 35 42 45 45 45 35 35 39
48 48 45 55 58 61 61 58 55 68 61 68 68 65 68 58 52 45 55 48 39 32 29 32 29 23 23 26 26 23 23 23 23 26 32 35 39 39 39 42 35 35 39
48 48 45 48 55 58 58 58 58 55 55 52 55 52 52 52 48 52 48 45 39 35 32 32 26 32 32 32 26 19 19 23 23 26 26 26 26 35 39 29 29 32 35
52 45 45 52 52 58 52 52 52 52 52 45 48 48 48 42 42 45 39 45 39 39 39 32 32 32 32 29 23 26 32 29 26 23 23 19 19 23 23 29 26 29 32
48 48 42 39 48 48 55 55 55 52 39 42 35 35 39 39 39 45 42 39 39 39 39 35 32 32 26 26 23 26 16 19 19 19 19 10 13 13 19 23 26 29 29
48 52 45 45 42 42 39 42 39 42 35 32 29 35 39 39 35 45 42 42 39 35 35 29 32 32 29 26 13 19 16 16 16 10 10 10 13 19 16 16 19 26 29
42 45 32 35 32 39 35 35 35 35 35 32 35 35 39 45 39 39 42 42 35 29 32 32 32 32 26 23 10 6 13 16 10 16 13 10 13 13 13 13 16 10 16
35 35 39 35 35 35 35 35 35 35 29 32 32 32 35 35 35 35 26 39 35 35 32 29 26 26 19 23 13 13 13 6 10 6 10 10 10 13 19 16 16 13 16
29 26 39 35 32 29 35 32 39 35 32 32 32 32 29 29 29 29 29 26 26 26 29 29 26 16 16 19 16 10 0 6 10 3 10 10 10 6 13 10 13 13 16
29 23 19 26 29 29 32 29 23 29 29 29 26 26 26 26 26 26 23 23 23 19 19 26 26 19 19 13 13 10 6 0 3 10 13 6 6 6 10 13 13 13 10
23 19 19 29 29 26 29 26 23 26 29 23 19 26 19 23 26 26 26 23 23 19 23 26 19 16 10 13 13 10 10 10 6 10 10 10 6 13 10 3 3 6 6
23 23 23 26 26 26 26 26 35 32 32 26 23 19 16 23 32 26 19 23 23 16 16 13 10 10 10 10 6 6 6 10 6 6 10 10 6 10 10 6 10 6 10
19 16 16 23 23 23 19 19 19 23 26 23 23 23 19 23 26 23 16 10 13 13 13 10 10 6 13 10 6 6 10 10 6 6 3 6 6 6 6 6 6 3 3
Height
5898 5898 5897 5897 5897 5896 5896 5895 5895 5894 5894 5893 5892 5891 5890 5890 5889 5888 5887 5887 5886 5886 5885 5885 5885 5884 5884 5883 5883 5882 5882 5881 5881 5881 5880 5880 5880 5880 5880 5880 5880 5881 5882
5897 5897 5896 5896 5896 5895 5895 5894 5893 5893 5892 5891 5890 5889 5888 5888 5887 5886 5885 5884 5884 5884 5883 5883 5882 5882 5881 5881 5880 5880 5879 5878 5878 5878 5877 5877 5877 5877 5877 5878 5878 5878 5879
5896 5895 5894 5894 5894 5893 5893 5893 5892 5891 5890 5889 5888 5887 5886 5885 5884 5884 5883 5882 5881 5881 5881 5880 5880 5879 5879 5878 5878 5877 5876 5876 5875 5875 5874 5874 5874 5874 5874 5875 5875 5875 5876
5894 5893 5893 5892 5892 5891 5891 5891 5890 5889 5888 5887 5886 5885 5884 5883 5882 5881 5880 5880 5879 5878 5878 5877 5877 5876 5876 5875 5874 5874 5873 5873 5872 5872 5871 5871 5870 5870 5871 5871 5872 5872 5873
5892 5892 5891 5890 5890 5889 5889 5888 5888 5887 5886 5885 5884 5883 5881 5881 5880 5879 5878 5877 5876 5876 5875 5874 5873 5873 5872 5872 5871 5870 5870 5869 5869 5868 5868 5867 5867 5867 5867 5867 5868 5868 5869
5890 5890 5889 5888 5888 5887 5887 5886 5885 5884 5883 5882 5881 5880 5879 5878 5877 5876 5875 5874 5873 5872 5872 5871 5870 5869 5868 5868 5867 5867 5866 5865 5865 5864 5864 5863 5863 5863 5863 5863 5864 5864 5865
5888 5888 5887 5886 5886 5885 5884 5884 5883 5882 5881 5880 5879 5878 5877 5875 5874 5873 5872 5871 5870 5869 5868 5867 5866 5865 5864 5864 5863 5863 5862 5861 5860 5860 5859 5859 5859 5859 5859 5859 5860 5860 5861
5886 5885 5885 5884 5883 5882 5881 5881 5880 5879 5878 5877 5876 5875 5874 5872 5871 5870 5869 5867 5866 5865 5864 5863 5862 5861 5861 5860 5859 5858 5857 5856 5856 5855 5855 5854 5854 5854 5855 5855 5855 5856 5856
5884 5883 5882 5881 5880 5879 5879 5878 5878 5877 5876 5874 5873 5872 5871 5869 5868 5867 5865 5864 5863 5861 5860 5859 5858 5857 5856 5855 5854 5853 5853 5852 5851 5850 5850 5850 5850 5849 5850 5850 5851 5851 5852
5881 5881 5880 5879 5878 5877 5876 5876 5875 5874 5873 5871 5870 5868 5867 5865 5864 5863 5862 5860 5859 5857 5856 5855 5854 5853 5851 5850 5849 5848 5848 5847 5846 5845 5845 5844 5844 5844 5844 5845 5845 5846 5847
5879 5878 5877 5876 5875 5875 5874 5873 5872 5871 5869 5868 5866 5865 5863 5862 5860 5859 5857 5856 5854 5853 5851 5850 5849 5847 5846 5844 5843 5842 5842 5841 5840 5839 5839 5839 5839 5839 5839 5839 5839 5840 5841
5877 5876 5875 5874 5873 5872 5871 5869 5868 5867 5866 5864 5862 5861 5859 5858 5856 5854 5853 5851 5850 5848 5847 5845 5843 5842 5840 5839 5838 5837 5836 5835 5834 5833 5833 5833 5833 5833 5833 5833 5833 5834 5835
5874 5873 5872 5871 5870 5869 5867 5866 5865 5863 5862 5860 5858 5856 5855 5853 5852 5850 5848 5846 5845 5843 5842 5840 5838 5836 5835 5834 5832 5831 5830 5829 5828 5827 5827 5827 5827 5827 5827 5827 5827 5828 5829
5871 5870 5869 5867 5866 5865 5863 5862 5860 5859 5857 5856 5854 5852 5850 5849 5847 5845 5843 5841 5840 5838 5836 5834 5832 5831 5829 5828 5826 5825 5824 5823 5821 5821 5820 5820 5820 5821 5821 5820 5821 5822 5822
5867 5866 5865 5863 5862 5861 5859 5858 5856 5854 5852 5851 5850 5848 5846 5844 5842 5840 5838 5836 5834 5833 5831 5829 5827 5825 5823 5822 5821 5819 5817 5816 5815 5814 5814 5814 5814 5814 5814 5814 5814 5815 5816
5863 5862 5861 5859 5858 5856 5855 5853 5851 5850 5848 5846 5845 5843 5841 5839 5837 5835 5833 5831 5829 5827 5825 5823 5821 5819 5817 5816 5815 5813 5811 5809 5808 5807 5807 5806 5806 5807 5807 5807 5807 5808 5809
5859 5858 5857 5855 5853 5851 5849 5848 5845 5844 5843 5842 5840 5837 5836 5834 5832 5830 5828 5826 5824 5822 5820 5818 5815 5813 5811 5809 5807 5806 5803 5802 5801 5800 5799 5799 5799 5799 5799 5800 5800 5800 5801
5854 5853 5852 5850 5849 5846 5844 5842 5841 5839 5838 5836 5834 5832 5830 5828 5826 5824 5822 5821 5819 5816 5814 5812 5809 5807 5804 5802 5800 5798 5796 5795 5794 5793 5792 5792 5791 5791 5792 5792 5792 5792 5793
5850 5848 5847 5845 5844 5841 5839 5837 5835 5833 5832 5830 5828 5826 5824 5822 5820 5819 5817 5815 5812 5809 5807 5805 5802 5800 5798 5795 5793 5791 5789 5788 5787 5786 5785 5784 5784 5784 5784 5784 5785 5785 5785
5845 5843 5842 5840 5838 5836 5834 5832 5830 5828 5827 5825 5823 5820 5818 5816 5814 5812 5810 5808 5805 5803 5800 5798 5795 5793 5791 5789 5786 5784 5782 5781 5780 5779 5778 5777 5777 5776 5776 5777 5777 5777 5778
5840 5838 5837 5835 5833 5831 5828 5826 5825 5823 5821 5819 5817 5814 5812 5810 5808 5805 5803 5801 5798 5796 5793 5791 5788 5786 5784 5782 5780 5777 5776 5774 5773 5772 5772 5771 5770 5769 5769 5769 5769 5770 5770
5835 5833 5831 5829 5827 5825 5823 5821 5819 5817 5815 5813 5811 5808 5807 5804 5802 5799 5797 5795 5792 5789 5786 5783 5781 5779 5777 5775 5773 5771 5770 5769 5767 5766 5765 5764 5763 5763 5762 5762 5762 5762 5762
5829 5828 5826 5824 5822 5820 5818 5816 5813 5811 5809 5807 5805 5803 5801 5798 5796 5794 5791 5788 5785 5782 5779 5776 5774 5772 5771 5769 5766 5765 5764 5762 5761 5760 5759 5758 5757 5756 5756 5755 5755 5755 5755
5824 5822 5820 5818 5816 5814 5812 5810 5808 5806 5804 5802 5799 5797 5795 5792 5790 5787 5784 5781 5778 5775 5772 5769 5767 5765 5763 5762 5760 5758 5757 5756 5755 5754 5753 5751 5750 5749 5749 5748 5748 5748 5747
5818 5816 5814 5812 5810 5808 5806 5804 5802 5800 5799 5796 5793 5791 5788 5786 5783 5780 5777 5774 5771 5768 5765 5762 5760 5758 5756 5755 5753 5752 5751 5749 5748 5748 5747 5745 5744 5743 5742 5742 5741 5741 5740
5813 5811 5809 5807 5805 5803 5801 5799 5797 5795 5793 5790 5788 5785 5782 5780 5777 5774 5771 5768 5764 5761 5758 5756 5753 5751 5750 5748 5747 5745 5744 5743 5742 5741 5740 5738 5737 5736 5735 5734 5734 5733 5732
Wind_Speed
2 2 2 2 3 4 4 4 5 6 7 7 7 7 6 6 6 6 6 6 7 7 7 7 8 8 9 9 10 10 10 10 11 11 11 12 12 13 13 14 14 14 14
4 4 4 4 4 5 6 6 7 7 8 8 8 8 8 8 7 7 8 8 8 8 8 8 8 9 9 10 11 11 11 12 12 12 12 13 13 14 14 14 15 15 15
5 4 4 5 5 6 7 8 8 8 8 9 9 9 9 9 9 9 10 9 9 10 10 10 10 10 11 11 12 12 13 13 13 14 14 14 14 15 15 16 16 16 17
6 6 6 6 6 7 7 8 9 10 10 10 10 10 10 10 10 11 11 11 11 11 12 12 12 13 13 13 13 13 14 14 15 15 15 15 15 16 17 17 17 17 17
7 8 8 7 8 8 8 9 10 11 11 11 11 11 11 11 11 12 12 12 12 13 13 14 14 14 15 15 15 15 15 15 16 16 16 17 17 17 17 18 18 18 18
9 9 9 9 9 10 10 10 11 11 11 12 11 11 11 12 13 13 13 14 14 14 14 15 16 16 16 16 17 17 17 17 17 17 17 18 18 18 18 19 19 19 19
10 10 10 10 10 10 11 10 11 11 11 12 12 12 13 13 14 14 15 15 15 15 16 16 16 17 17 18 18 18 18 19 19 19 19 19 19 19 19 20 20 20 20
10 10 10 11 11 11 11 11 12 12 12 13 13 13 14 14 15 15 15 16 16 17 17 17 18 18 19 19 19 20 19 19 19 19 20 21 20 20 20 20 21 21 21
11 11 11 11 12 12 12 12 13 13 14 14 15 15 16 16 16 17 17 17 17 18 19 19 20 20 20 21 21 21 21 21 21 21 21 21 20 21 21 21 21 22 22
12 12 12 12 12 12 13 14 14 14 15 15 16 16 17 17 18 18 18 18 19 19 20 21 21 22 22 22 22 23 23 23 22 22 22 22 22 22 22 22 22 23 24
12 12 13 13 13 13 14 15 15 16 16 17 17 18 18 18 19 19 19 20 20 20 21 21 22 22 23 23 24 24 24 24 24 24 24 23 23 23 23 23 23 24 25
12 12 13 13 14 14 15 16 16 17 17 18 18 18 19 19 20 20 21 21 21 21 21 22 23 24 24 25 25 24 24 24 25 25 25 24 23 24 24 24 24 25 25
13 13 14 15 16 16 17 17 18 19 19 19 19 19 20 20 21 21 21 22 22 22 23 23 23 24 25 26 26 26 25 26 26 25 26 25 24 24 25 25 25 25 26
14 15 16 17 18 19 20 19 20 20 20 20 20 20 21 21 21 22 22 23 23 23 24 24 24 24 25 26 25 26 26 26 26 26 26 26 26 25 25 26 26 26 27
15 16 18 19 20 21 22 22 22 22 21 21 21 21 22 22 21 22 23 23 23 24 24 25 25 25 26 26 26 26 27 27 27 28 27 27 26 26 26 27 27 27 27
17 18 19 20 22 23 23 24 24 23 22 21 22 22 22 23 22 22 23 23 23 24 25 26 26 27 27 27 28 28 28 29 28 28 28 28 27 27 27 27 28 29 28
19 20 21 22 23 24 25 24 24 23 22 22 23 23 24 24 23 23 23 24 25 25 26 26 27 27 27 28 29 29 30 29 29 28 28 28 28 28 28 28 28 29 29
21 22 23 23 24 24 25 24 23 22 23 23 24 24 25 25 24 24 24 25 26 26 27 27 28 28 28 28 29 29 28 28 29 28 28 28 28 27 28 28 29 30 30
21 22 22 23 23 24 24 23 24 23 24 25 25 26 26 25 25 26 26 27 27 28 28 28 28 28 28 28 29 28 28 27 27 28 28 28 28 28 28 28 29 29 30
22 22 23 23 23 24 24 24 24 24 25 25 24 26 26 26 26 27 27 27 28 28 29 29 28 28 28 28 28 27 26 26 26 26 27 27 27 27 28 29 28 28 29
22 23 23 23 24 24 25 24 23 23 24 24 25 26 26 27 27 27 27 27 27 28 28 28 28 28 27 27 27 26 26 26 26 26 26 26 26 26 27 28 28 28 28
23 23 24 24 24 24 23 23 22 22 23 25 26 26 26 27 27 27 27 27 28 28 28 28 28 27 27 27 27 25 25 25 25 25 25 25 25 25 26 26 26 27 27
23 24 24 25 25 24 23 23 23 23 24 25 25 26 26 26 26 27 27 27 28 28 28 27 27 26 26 27 26 25 24 24 24 25 24 25 25 25 24 25 25 26 28
23 23 24 25 25 23 23 23 22 23 24 24 26 27 26 26 26 27 27 28 27 27 27 27 26 26 26 25 24 24 24 24 24 23 24 25 25 25 24 24 25 25 27
23 23 23 24 24 23 23 23 22 23 24 24 24 25 25 26 27 27 28 27 27 26 26 26 25 25 25 24 24 24 25 25 24 24 24 25 25 25 25 25 26 26 27
23 23 24 23 23 23 23 23 24 24 23 24 24 24 25 26 27 27 28 27 27 26 26 25 24 24 24 23 23 23 23 24 24 24 24 25 25 25 25 26 27 27 27
Wind_Direction
266 262 271 278 284 290 293 287 287 283 282 283 283 282 284 288 293 296 296 297 296 293 290 288 289 291 291 290 288 286 284 281 279 277 272 267 264 260 257 254 250 247 246
266 260 271 273 281 287 292 293 294 293 292 290 289 290 290 290 293 293 294 294 293 293 292 289 288 287 286 285 285 284 283 281 277 275 273 269 264 261 257 255 253 249 247
266 265 271 271 276 285 290 294 293 292 293 291 290 291 292 293 293 293 293 291 291 290 290 291 289 285 284 282 281 281 281 278 277 275 273 270 266 261 257 255 254 253 251
272 274 273 274 277 282 286 293 297 294 292 294 294 294 295 296 295 295 295 293 290 289 290 289 288 286 284 283 281 280 280 279 277 275 273 271 267 262 258 256 255 254 253
273 277 279 278 280 282 285 291 294 297 296 295 296 297 297 296 295 296 297 294 291 289 289 288 287 286 286 284 281 281 281 279 276 275 272 270 269 265 261 259 256 255 253
277 281 284 284 284 284 286 293 295 294 295 294 295 298 298 298 295 294 295 294 291 287 287 288 287 286 285 284 281 281 282 279 277 276 273 271 269 266 262 260 257 254 253
282 284 287 287 287 287 289 290 295 293 291 295 295 296 297 298 296 294 293 294 291 289 289 289 288 286 285 285 283 282 282 280 278 276 273 271 269 267 263 259 257 256 255
282 287 291 292 291 291 288 291 295 296 292 294 296 297 297 298 296 294 293 293 291 288 287 287 287 286 286 285 284 283 282 280 278 277 273 271 270 268 265 261 258 257 256
281 287 291 292 290 290 293 295 295 295 297 293 295 294 295 295 295 295 294 291 289 288 288 287 286 286 284 285 285 283 282 280 278 276 274 271 270 268 267 263 259 257 256
279 283 286 287 289 292 293 294 294 294 296 297 297 295 293 292 292 292 293 292 291 291 290 288 288 287 286 285 284 284 282 280 278 277 275 273 270 267 267 264 260 257 255
278 280 283 286 289 291 291 292 293 293 293 294 294 293 291 291 291 290 292 292 292 291 291 291 288 289 287 285 284 283 281 280 278 277 274 274 271 268 267 264 261 258 255
283 281 283 285 288 290 291 290 291 292 291 293 294 292 291 291 291 289 290 291 291 291 291 292 290 287 286 285 285 284 282 280 279 277 274 272 270 269 269 265 262 258 256
282 282 282 286 288 287 288 291 290 289 289 290 291 290 290 291 290 289 289 290 291 291 291 292 292 290 288 288 287 285 285 282 279 279 276 273 271 270 269 266 262 260 257
281 283 284 285 287 287 288 289 289 288 288 289 288 289 289 290 288 288 289 288 289 290 290 290 291 291 289 289 288 286 285 285 281 280 277 273 270 268 269 267 266 264 261
282 285 286 287 288 289 289 288 287 287 286 287 286 287 289 287 286 287 290 290 290 290 290 289 289 290 289 287 286 286 284 283 281 280 277 273 270 267 269 268 267 266 263
281 284 286 288 290 289 289 288 287 286 285 285 285 285 285 287 286 287 288 289 290 290 291 291 290 289 288 288 288 286 282 282 281 280 278 275 271 269 268 269 268 265 265
279 282 284 286 290 288 289 288 286 283 285 285 286 286 285 286 285 286 287 288 289 289 291 291 291 290 290 288 288 287 283 280 278 277 277 277 276 272 270 269 268 266 265
281 283 285 287 291 290 291 289 286 287 287 285 284 285 285 286 287 288 288 288 289 289 290 291 291 292 291 290 289 288 283 280 277 277 276 276 276 273 271 270 269 266 264
285 286 287 287 289 290 291 290 291 288 285 283 284 285 285 287 289 291 290 289 290 289 289 289 290 290 291 290 288 286 283 281 279 277 276 275 275 273 271 270 269 267 265
288 287 288 289 290 290 290 290 288 286 286 285 286 287 287 287 290 291 291 290 290 290 290 289 289 289 290 290 289 286 283 281 279 278 277 277 275 273 271 269 269 268 266
290 290 291 292 292 292 293 290 288 287 289 288 286 287 289 289 290 292 292 291 292 292 292 290 288 288 288 288 288 287 285 284 282 279 278 278 276 273 271 269 269 269 268
290 291 291 292 293 295 294 292 290 292 292 290 287 288 290 290 290 292 291 292 293 294 293 291 287 287 287 287 286 286 284 283 282 281 279 278 277 275 272 269 268 269 269
291 292 291 292 292 293 293 293 294 294 293 288 287 288 288 290 293 292 292 293 293 294 293 291 288 287 288 287 285 285 284 282 281 280 279 279 278 276 273 271 271 270 270
293 293 294 294 293 291 292 292 293 293 293 291 290 288 288 291 293 294 293 293 293 293 293 291 288 288 287 286 286 285 284 282 281 279 279 279 279 277 275 274 274 273 271
294 295 296 295 295 295 294 291 291 291 292 293 294 292 292 292 293 295 294 294 293 293 293 291 288 288 289 288 286 285 283 282 281 279 278 279 280 278 276 276 276 275 274
295 295 296 297 297 296 294 293 291 291 293 295 296 297 297 296 296 295 294 294 294 294 294 292 290 290 290 290 288 286 285 282 279 278 278 278 278 278 277 276 276 276 274